Regional Weather Roundup
Issued by NWS Wakefield, VA

Home | Current Version | Previous Version | Text Only | Print | Product List | Glossary On
Versions: 1 2 3 4 5 6 7 8 9 10 11 12 13 14 15 16 17 18 19 20 21 22 23 24 25 26 27
000
ASUS41 KAKQ 292115
RWRAKQ

REGIONAL WEATHER ROUNDUP
NATIONAL WEATHER SERVICE WAKEFIELD VA
500 PM EDT SUN MAY 29 2016

Note: "fair" indicates few or no clouds below 12,000 feet with no
significant weather and/or obstructions to visibility. * = Denotes
station may not report precipitation (e.g., rain,snow,etc.),
thunder or fog.

VAZ042-051-052>054-056-292200-
NORTHERN VIRGINIA

CITY           SKY/WX    TMP DP  RH WIND       PRES   REMARKS
WASH NATIONAL  LGT RAIN  76  71  85 SE14      30.07
DULLES         LGT RAIN  79  65  62 S5        30.07F
FORT BELVOIR   RAIN      75  70  85 SE8       30.07S
QUANTICO       RAIN      74  72  93 S8        30.08S FOG
FREDERICKSBRG* RAIN      73  73 100 CALM      30.07F
STAFFORD*      LGT RAIN  72  70  92 S5        30.12S
WARRENTON      DRIZZLE   78  65  65 S3        30.07F
CULPEPER*      DRIZZLE   79  65  64 CALM      30.08F
MANASSAS*      MOSUNNY   81  70  69 S5        30.07F
LEESBURG*      DRIZZLE   81  68  65 S12       30.08S
WINCHESTER     PTSUNNY   79  64  61 CALM      30.08S
FRONT ROYAL*   CLOUDY    79  68  69 CALM      30.07F
LURAY*         FAIR      77  64  65 SW6       30.08F
$$

VAZ048-049-060>072-079>083-292200-
CENTRAL AND SOUTH CENTRAL VIRGINIA

CITY           SKY/WX    TMP DP  RH WIND       PRES   REMARKS
RICHMOND       RAIN      72  71  97 N6        30.06F FOG
CHESTERFIELD*  MOCLDY    72  61  68 N6        30.07F
PETERSBURG*    DRIZZLE   73  73 100 NE7       30.05F
HANOVER        LGT RAIN  70  68  93 CALM      30.08F
TAPPAHANNOCK*  RAIN      75  75 100 CALM      30.07F
QUINTON*       CLOUDY    73  73 100 N3        30.05F
CHARLOTTSVILLE CLOUDY    78  64  61 W3        30.07F
GORDONSVILLE*  CLOUDY    76  69  78 CALM      30.07F
ORANGE*        CLOUDY    77  64  65 NE3       30.09F
LOUISA*        PTSUNNY   81  70  69 CALM      30.06F
BUMPASS*       CLOUDY    76  68  77 E5        30.07F
FARMVILLE*     CLOUDY    78  68  70 N3        30.05F
CREWE*         CLOUDY    76  71  84 NE3       30.05F
FORT PICKETT*  NOT AVBL
CHASE CITY*    CLOUDY    71  70  95 NW5       30.06F
CLARKSVILLE*   CLOUDY    70  70 100 N7        30.05F
SOUTH HILL*    CLOUDY    75  73  92 N5        30.11R
LAWRENCEVILLE* CLOUDY    74  73  94 CALM      30.04S
EMPORIA*       CLOUDY    77  73  88 E8        30.04F
$$

VAZ088>098-292200-
SOUTHEAST VIRGINIA

CITY           SKY/WX    TMP DP  RH WIND       PRES   REMARKS
NORFOLK        LGT RAIN  75  72  90 SE7       30.05F
VIRGINIA BEACH LGT RAIN  79  71  76 SE10      30.05F
NORFOLK NAVAL  CLOUDY    76  73  91 SE6       30.06F
WEST POINT*    CLOUDY    77  73  88 SE5       30.07F
SALUDA*        CLOUDY    75  74  97 SE5       30.06F
NEWPORT NEWS   LGT RAIN  75  73  93 E10       30.05F
LANGLEY AFB    LGT RAIN  75  73  94 E7        30.05F FOG
FORT EUSTIS    LGT RAIN  75  67  74 SE5       30.03F
WILLIAMSBURG*  FAIR      79  75  89 SE5       30.06F
HR EXEC AP*      N/A     75  73  94 SE5       30.07F
FRANKLIN*      PTSUNNY   76  71  83 SE7       30.04F
US460-WAKEFLD  CLOUDY    76  71  85 VRB3      30.04F
$$

VAZ020-022-025-037-045-292200-
WEST CENTRAL AND SOUTHWEST VIRGINIA

CITY           SKY/WX    TMP DP  RH WIND       PRES   REMARKS
STAUNTON*      LGT RAIN  69  64  84 SW6       30.14S
WAYNESBORO*    CLOUDY    64  57  79 SW5       30.14F
HOT SPRINGS VA DRIZZLE   62  53  72 NE6       30.21F
LYNCHBURG      PTSUNNY   67  61  81 VRB6      30.11F
DANVILLE       CLOUDY    69  62  78 N8        30.09F
SOUTH BOSTON*  CLOUDY    69  68  95 NW3       30.08S
MARTINSVILLE   CLOUDY    66  56  70 N6        30.15S
ROANOKE        LGT RAIN  67  60  78 E12       30.14F
BLACKSBURG     CLOUDY    69  59  70 CALM      30.18F
DUBLIN*        LGT RAIN  68  62  82 NE6       30.17F
MARION*        LGT RAIN  71  59  64 SE3       30.18F
HILLSVILLE*    CLOUDY    68  57  66 NE3       30.16F
RICHLANDS*     CLOUDY    73  63  72 E3        30.17F
WISE*          FAIR      75  59  57 W5        30.17F
ABINGDON*      FAIR      75  56  50 SE5       30.14F
$$

MDZ021>025-VAZ099-100-292200-
SOUTHERN MARYLAND AND THE DELMARVA PENINSULA

CITY           SKY/WX    TMP DP  RH WIND       PRES   REMARKS
PATUXENT RIVER LGT RAIN  74  71  91 SE5       30.07F
BAY BRIDGE APT LGT RAIN  75  73  94 S8        30.07S
LEONARDTOWN    CLOUDY    73  70  88 CALM      30.09F
DOVER          LGT RAIN  72  72 100 SE10      30.07S FOG
GEORGETOWN     CLOUDY    80  71  74 S8        30.08F
EASTON         NOT AVBL
CAMBRIDGE      CLOUDY    77  70  78 S5        30.07F
SALISBURY      CLOUDY    77  74  90 S7        30.08F
OCEAN CITY     CLOUDY    72  68  87 VRB5      30.09F
WALLOPS ISLAND PTSUNNY   75  71  87 SE9       30.09F
ACCOMACK*      PTSUNNY   77  70  78 CALM      30.08F
$$

NCZ012>017-030>032-292200-
NORTH CENTRAL AND EASTERN NORTH CAROLINA

CITY           SKY/WX    TMP DP  RH WIND       PRES   REMARKS
ROANOKE RAPIDS MOCLDY    81  72  74 SE5       30.02F
RALEIGH        CLOUDY    72  70  94 N8        30.04R THUNDER
ELIZABETH CITY CLOUDY    77  73  87 CALM      30.05F
AHOSKIE*       MOSUNNY   78  73  84 S6        30.03F
EDENTON*       CLOUDY   N/A N/A N/A SE5       30.04F
CURRITUCK*     LGT RAIN  75  74  98 CALM      30.06F
KILL DEVIL HLS LGT RAIN  80  70  71 S5G16     30.06S
MANTEO         NOT AVBL
CAPE HATTERAS  MOSUNNY   83  74  74 S9        30.07S
TARBORO*       HVY RAIN  82  74  78 NE3       30.03S VSB 3/4
GOLDSBORO      NOT AVBL
WASHINGTON     SUNNY     83  73  70 SE8       30.02S
GREENVILLE     LGT RAIN  82  73  74 SE6       30.03S
NEW BERN       PTSUNNY   81  69  67 S14       30.03F
WILMINGTON     PTSUNNY   77  74  90 SE9       29.99S
$$

VAZ048-292200-
ELSEWHERE

CITY           SKY/WX    TMP DP  RH WIND       PRES   REMARKS
HARRISBURG PA  CLOUDY    85  60  42 S7        30.03F
BALTIMORE      LGT RAIN  80  69  69 S7        30.05F
ANNAPOLIS      LGT RAIN  75  71  87 S10       30.06F
ANDREWS AFB    RAIN      72  70  94 S10       30.08  FOG
PHILADELPHIA   CLOUDY    84  65  52 S10       30.06F
HENDERSON NC   CLOUDY    71  68  91 N7        30.06R
GREENSBORO     LGT RAIN  72  63  73 NE10G20   30.08S
ROCKY MOUNT    LGT RAIN  83  73  72 VRB6      30.01F
$$

VAZ100-292200-
MARINE

STATION/POSITION TIME  TEMP    WIND        PRES    WAVE   SWELL
                       AIR SEA DIR/SP/G            HT/PER HT/PER
                 (UTC) (F)     (DEG/KT/KT) (MB)    (FT/S) (FT/S)
BRANDYWINE LGT   2000   65     160/ 13/ 15 1019.3F
CAPE MAY NJ      2000   72 71  140/  9/ 11 1019.2F
LEWES DE         2000   76 66  160/  8/ 12 1019.1F
15NM E FENWICK I 2050   69 67              1019.2F   3/ 8
OCEAN-CITY-INLET 2000   72 60  160/  4/  6 1019.8F
WACHAPREAGUE VA  2000   74 77  150/  7/  9 1018.6F
THOMAS POINT MD  2100   72 69  190/ 14/ 15 1019.4F
GOOSES REEF MD   2100   71 69  180/  8/ 10 1019.3F   1/ 2
COVE POINT MD    2000   70     190/  9/ 10 1019.3F
SOLOMONS ISLAND  2000   72 70  130/  3/  4   N/A
BISHOPS HEAD MD  2000   74 80  150/  6/  7 1019.0F
PINEY POINT MD   2012          150/  9/ 10   N/A
POTOMAC MD       2100   72 72  150/  2/  4 1017.2F   0
CAMBRIDGE MD     2000   75 68  140/  4/  7 1018.0F
LEWISETTA VA     2000   72 70  120/  7/  8 1018.3F
RAPPAHANNOCK LGT 2000          140/ 11/ 11 1019.2F
STINGRAY PT      2100   73 71  150/  4/  4 1018.5F   0
YORK RVR RNG VA  2000   71     130/ 13/ 14 1017.7F
YORKTOWN VA      2000   73 70  100/  5/  7 1018.1F
JAMESTOWN VA     2100   75 75  120/  6/ 10   N/A     0
DOMINION TERM VA 2000   75      90/  6/  9 1018.2F
KIPTOPEKE VA     2000      70  150/ 11/ 16   N/A
CHES BAY BRIDGE  2000   73 65   90/  4/  8 1018.3F
CAPE HENRY VA    2000   72     130/  8/ 10   N/A
CHESAPEAKE LGHT  2000   72     150/ 15/ 16 1019.2F
WILLOUBY STN VA  2000   76     150/  9/ 10 1019.2F
CAPE HENRY BUOY  2012      70                N/A     3/ 8
1ST LANDING BUOY 2100   70 70  120/ 10/ 12 1017.8F   1/ 4
CAPE CHARLES BUO 2026      69                N/A     3/ 5   2/ 6
OFFSHORE WE BUOY 2021      71                N/A     4/ 8   3/ 8
64NM E OF VA BCH 2050   70 65  120/  6/  8 1018.6F   4/ 8   3/ 8
DUCK PIER NC     2000   70 63  150/  9/ 10 1017.6F
44100 DUCK FRF   2024      71                N/A     4/ 7
44056 DUCK FRF   2011      68                N/A     3/ 8
OREGON INLET NC  2000   77 76  120/  9/ 12 1018.3F
HATTERAS NC      2000   77 77  180/  6/ 10 1017.8F
DIAMOND SHLS NC  2050   79 78  160/ 17/ 21 1017.6F   6/ 7   2/ 8
CAPE LOOKOUC1F1C2F2C3F3C4F4C5F5C6F6C7F7C8M1C9!



USA.gov is the U.S. government's official web portal to all federal, state and local government web resources and services.